Location: Unspecified
(47.1121°N, 116.3927°W)
Time: 07:37:32
(UTC-07:00)

Cosmos 1674 - Visible Passes

Search period start: 16 October 2019 00:00
Search period end: 26 October 2019 00:00
Orbit: 495 x 520 km, 82.5° (Epoch: 15 October)

Date Brightness Start Highest point End Pass type
(mag) Time Alt. Az. Time Alt. Az. Time Alt. Az.
16 Oct 5.0 05:55:04 10° SSE 05:58:16 28° E 06:01:29 10° NNE visible
17 Oct 5.4 05:37:45 10° SE 05:40:41 22° E 05:43:37 10° NE visible
17 Oct 6.4 18:40:31 10° WNW 18:41:50 11° W 18:43:08 10° WSW visible
18 Oct 5.7 05:20:35 10° SE 05:23:06 18° E 05:25:38 10° NE visible
18 Oct 6.0 18:22:07 10° NW 18:24:17 15° W 18:26:26 10° WSW visible
19 Oct 6.0 05:03:36 10° ESE 05:05:32 14° E 05:07:29 10° NE visible
19 Oct 2.9 06:37:07 10° SSW 06:40:40 44° WNW 06:44:17 10° N visible
20 Oct 6.2 04:47:04 10° E 04:47:59 11° E 04:48:55 10° ENE visible
20 Oct 2.6 06:19:20 10° SSW 06:22:59 59° WNW 06:26:41 10° N visible
21 Oct 2.5 06:01:37 10° SSW 06:05:19 78° W 06:09:04 10° N visible
22 Oct 2.7 05:43:57 10° S 05:47:39 80° E 05:51:24 10° NNE visible
23 Oct 3.1 05:26:21 10° S 05:30:01 60° E 05:33:42 10° NNE visible
24 Oct 3.7 05:08:50 10° SSE 05:12:22 45° E 05:15:58 10° NNE visible
24 Oct 4.3 06:46:04 10° WSW 06:48:12 15° WNW 06:50:20 10° NNW visible
25 Oct 4.2 04:51:22 10° SSE 04:54:46 34° E 04:58:10 10° NNE visible
25 Oct 4.1 06:27:48 10° WSW 06:30:26 18° WNW 06:33:05 10° NNW visible
